Decorah, Iowa, United States (52101)
Lat: 43.30N, Lon: 91.79W
Wx Zone: IAZ010
Local Info
Past Weather Observations for Today

NOTE: This archive is for the closest National Weather Service station to Decorah. Information may differ from the station used for current weather conditions.

Click here for Long-term Archive

Time Weather Temperature Dewpoint Humidity Pressure Winds Precip Visibility
19:35
Overcast
59°F / 15°C 52°F / 11°C 77% 30.01 in
(1016 mb)
W 8.1 mph
(W 13 kph)
- 10SM
19:15
Overcast
59°F / 15°C 54°F / 12°C 82% 30.01 in
(1016 mb)
WNW 8.1 mph
(WNW 13 kph)
- 10SM
18:55
Overcast
59°F / 15°C 54°F / 12°C 82% 30.01 in
(1016 mb)
W 8.1 mph
(W 13 kph)
- 10SM
18:35
Overcast
61°F / 16°C 54°F / 12°C 77% 30.01 in
(1016 mb)
Variable 6.9 mph
(Variable 11 kph)
- 10SM
18:15
Overcast
61°F / 16°C 54°F / 12°C 77% 30.01 in
(1016 mb)
WNW 8.1 mph
(WNW 13 kph)
- 10SM
17:55
Overcast
63°F / 17°C 52°F / 11°C 68% 29.98 in
(1015 mb)
SSW 9.2 mph
(SSW 15 kph)
- 10SM
17:35
Overcast
63°F / 17°C 52°F / 11°C 68% 29.98 in
(1015 mb)
W 8.1 mph
(W 13 kph)
- 10SM
17:15
Overcast
64°F / 18°C 52°F / 11°C 64% 29.98 in
(1015 mb)
W 9.2 mph
(W 15 kph)
- 10SM
16:55
Overcast
64°F / 18°C 50°F / 10°C 60% 29.95 in
(1014 mb)
W 12.7 mph
(W 20 kph)
- 10SM
16:35
Mostly Cloudy
64°F / 18°C 50°F / 10°C 60% 29.95 in
(1014 mb)
W 11.5 mph
(W 19 kph)
- 10SM
16:15
Partly Cloudy
64°F / 18°C 52°F / 11°C 64% 29.95 in
(1014 mb)
W 8.1 mph
(W 13 kph)
- 10SM
15:55
Partly Cloudy
64°F / 18°C 54°F / 12°C 68% 29.95 in
(1014 mb)
SSW 8.1 mph
(SSW 13 kph)
- 10SM
15:35
Partly Cloudy
64°F / 18°C 54°F / 12°C 68% 29.95 in
(1014 mb)
W 10.4 mph
(W 17 kph)
- 10SM
15:15
Clear
64°F / 18°C 54°F / 12°C 68% 29.95 in
(1014 mb)
W 9.2 mph
(W 15 kph)
- 10SM
14:55
Clear
66°F / 19°C 54°F / 12°C 64% 29.95 in
(1014 mb)
W 11.5 mph
(W 19 kph)
- 10SM
14:35
Clear
66°F / 19°C 54°F / 12°C 64% 29.95 in
(1014 mb)
SSW 9.2 mph
(SSW 15 kph)
-
14:15
Clear
68°F / 20°C 55°F / 13°C 64% 29.95 in
(1014 mb)
SSW 9.2 mph
(SSW 15 kph)
- 10SM
13:55
Clear
70°F / 21°C 54°F / 12°C 57% 29.95 in
(1014 mb)
SSW 10.4 mph
(SSW 17 kph)
- 10SM
13:35
Clear
70°F / 21°C 54°F / 12°C 57% 29.95 in
(1014 mb)
W 8.1 mph
(W 13 kph)
- 10SM
13:15
Clear
72°F / 22°C 54°F / 12°C 53% 29.95 in
(1014 mb)
W 10.4 mph
(W 17 kph)
- 10SM
12:55
Clear
72°F / 22°C 57°F / 14°C 61% 29.95 in
(1014 mb)
Variable 6.9 mph
(Variable 11 kph)
- 10SM
12:35
Partly Cloudy
72°F / 22°C 63°F / 17°C 73% 29.95 in
(1014 mb)
SSW 10.4 mph
(SSW 17 kph)
- 10SM
12:15
Mostly Cloudy
72°F / 22°C 64°F / 18°C 78% 29.95 in
(1014 mb)
SSW 9.2 mph
(SSW 15 kph)
- 10SM
11:55
Partly Cloudy
73°F / 23°C 66°F / 19°C 78% 29.95 in
(1014 mb)
SSW 10.4 mph
(SSW 17 kph)
- 10SM
11:35
Mostly Cloudy
70°F / 21°C 66°F / 19°C 88% 29.95 in
(1014 mb)
SSW 8.1 mph
(SSW 13 kph)
- 10SM
11:15
Overcast
68°F / 20°C 66°F / 19°C 94% 29.98 in
(1015 mb)
SSW 8.1 mph
(SSW 13 kph)
- 10SM
10:55
Overcast
70°F / 21°C 70°F / 21°C 100% 29.98 in
(1015 mb)
SSW 8.1 mph
(SSW 13 kph)
- 8SM
10:35
Overcast
70°F / 21°C 70°F / 21°C 100% 29.95 in
(1014 mb)
Variable 6.9 mph
(Variable 11 kph)
- 10SM
10:15
Overcast
72°F / 22°C 70°F / 21°C 94% 29.95 in
(1014 mb)
SW 8.1 mph
(SW 13 kph)
- 9SM
09:55
Overcast
Fog And Mist
70°F / 21°C 70°F / 21°C 100% 29.95 in
(1014 mb)
Variable 6.9 mph
(Variable 11 kph)
- 6SM
09:35
Overcast
Fog And Mist
68°F / 20°C 68°F / 20°C 100% 29.95 in
(1014 mb)
SW 8.1 mph
(SW 13 kph)
- 5SM
09:15
Overcast
Fog And Mist
68°F / 20°C 68°F / 20°C 100% 29.95 in
(1014 mb)
Variable 6.9 mph
(Variable 11 kph)
- 4SM
08:55
Overcast
Fog And Mist
68°F / 20°C 68°F / 20°C 100% 29.95 in
(1014 mb)
Variable 5.8 mph
(Variable 9 kph)
- 3SM
08:35
Overcast
Fog And Mist
68°F / 20°C 68°F / 20°C 100% 29.98 in
(1015 mb)
SW 8.1 mph
(SW 13 kph)
- 2 1/2SM
08:15
Overcast
Fog And Mist
68°F / 20°C 68°F / 20°C 100% 29.98 in
(1015 mb)
SW 8.1 mph
(SW 13 kph)
- 2SM
07:55
Overcast
Fog And Mist
66°F / 19°C 66°F / 19°C 100% 29.98 in
(1015 mb)
Variable 4.6 mph
(Variable 7 kph)
- 1 3/4SM
07:35
Overcast
Fog And Mist
66°F / 19°C 66°F / 19°C 100% 29.98 in
(1015 mb)
S 6.9 mph
(S 11 kph)
- 1 3/4SM
07:15
Overcast
Fog And Mist
66°F / 19°C 66°F / 19°C 100% 29.98 in
(1015 mb)
S 5.8 mph
(S 9 kph)
- 1 1/2SM
06:55
Overcast
Fog And Mist
66°F / 19°C 66°F / 19°C 100% 29.98 in
(1015 mb)
S 6.9 mph
(S 11 kph)
- 1 1/2SM
06:35
Overcast
Fog And Mist
66°F / 19°C 66°F / 19°C 100% 29.95 in
(1014 mb)
S 6.9 mph
(S 11 kph)
- 1 3/4SM
06:15
Overcast
Fog And Mist
64°F / 18°C 64°F / 18°C 100% 29.95 in
(1014 mb)
SSE 8.1 mph
(SSE 13 kph)
- 2SM
05:55
Overcast
Fog And Mist
66°F / 19°C 66°F / 19°C 100% 29.95 in
(1014 mb)
SSE 8.1 mph
(SSE 13 kph)
- 3SM
05:35
Overcast
Fog And Mist
66°F / 19°C 66°F / 19°C 100% 29.98 in
(1015 mb)
SSE 9.2 mph
(SSE 15 kph)
- 3SM
05:15
Overcast
Fog And Mist
64°F / 18°C 64°F / 18°C 100% 29.95 in
(1014 mb)
S 6.9 mph
(S 11 kph)
- 3SM
04:55
Overcast
Fog And Mist
64°F / 18°C 64°F / 18°C 100% 29.95 in
(1014 mb)
SSE 9.2 mph
(SSE 15 kph)
0.01 in
(0.25 mm)
3SM
04:35
Overcast
Fog And Mist
64°F / 18°C 64°F / 18°C 100% 29.95 in
(1014 mb)
SE 9.2 mph
(SE 15 kph)
- 3SM
04:15
Overcast
Drizzle
64°F / 18°C 64°F / 18°C 100% 29.98 in
(1015 mb)
SE 9.2 mph
(SE 15 kph)
- 3SM
03:55
Overcast
Light Rain
64°F / 18°C 64°F / 18°C 100% 29.98 in
(1015 mb)
SSE 5.8 mph
(SSE 9 kph)
0.04 in
(1.02 mm)
3SM
03:35
Overcast
Rain
64°F / 18°C 64°F / 18°C 100% 30.01 in
(1016 mb)
SSE 9.2 mph
(SSE 15 kph)
- 3SM
03:15
Mostly Cloudy
Fog And Mist
64°F / 18°C 64°F / 18°C 100% 30.01 in
(1016 mb)
SSE 9.2 mph
(SSE 15 kph)
- 4SM
02:55
Overcast
Fog And Mist
64°F / 18°C 64°F / 18°C 100% 30.01 in
(1016 mb)
SSE 10.4 mph
(SSE 17 kph)
- 4SM
02:35
Overcast
Fog And Mist
64°F / 18°C 64°F / 18°C 100% 30.01 in
(1016 mb)
SE 10.4 mph
(SE 17 kph)
- 4SM
02:15
Mostly Cloudy
Fog And Mist
64°F / 18°C 64°F / 18°C 100% 30.01 in
(1016 mb)
SE 8.1 mph
(SE 13 kph)
- 4SM
01:55
Mostly Cloudy
Fog And Mist
64°F / 18°C 64°F / 18°C 100% 30.01 in
(1016 mb)
SE 6.9 mph
(SE 11 kph)
- 5SM
01:35
Overcast
Fog And Mist
66°F / 19°C 66°F / 19°C 100% 30.04 in
(1017 mb)
SE 6.9 mph
(SE 11 kph)
- 5SM
01:15
Overcast
Fog And Mist
66°F / 19°C 66°F / 19°C 100% 30.04 in
(1017 mb)
S 9.2 mph
(S 15 kph)
- 6SM
00:55
Overcast
Fog And Mist
66°F / 19°C 66°F / 19°C 100% 30.04 in
(1017 mb)
Variable 6.9 mph
(Variable 11 kph)
- 6SM
00:35
Overcast
Fog And Mist
66°F / 19°C 66°F / 19°C 100% 30.04 in
(1017 mb)
SSE 8.1 mph
(SSE 13 kph)
- 6SM
00:15
Mostly Cloudy
Fog And Mist
66°F / 19°C 66°F / 19°C 100% 30.04 in
(1017 mb)
SE 10.4 mph
(SE 17 kph)
- 6SM
Time Weather Temperature Dewpoint Humidity Pressure Winds Precip Visibility


Weather for websites

WeatherForYou.com, LLC is not responsible for any damages or problems caused by this service. Current weather conditions are obtained from the closest station including government and personal stations which may have varying degrees of accuracy. Weather forecasts are derived from the NOAA NDFD. Like all things, this site belongs to Jesus Christ... He just trusts us to maintain it. If you have any questions or comments email webmaster@weatherforyou.com

Copyright © 2016, WeatherForYou.com LLC. All rights reserved.